CW9927 Weather Reports


time (UTC)temp
C
wind
direction
speed
KPH
gust
KPH
rain 1hr
cm
rain 24hr
cm
rain mn
cm
humidity
%
barometer
mb
20260906005016 25 0.0 0.0 0.00 0.00 0.00 35 1013.0
20260906004036 26 225 6.4 11.3 0.00 0.00 0.00 34 1013.0
20260906003018 26 225 3.2 11.3 0.00 0.00 0.00 34 1012.9
20260906002036 26 0.0 3.2 0.00 0.00 0.00 34 1012.8
20260906001016 27 225 3.2 12.9 0.00 0.00 0.00 34 1012.8
20260906000016 27 225 1.6 9.7 0.00 0.00 0.00 36 1012.8
20260905235018 27 248 3.2 8.0 0.00 0.00 0.00 35 1012.8
20260905234016 27 0.0 1.6 0.00 0.00 0.00 36 1012.8
20260905233018 27 0.0 0.0 0.00 0.00 0.00 36 1012.8
20260905232056 27 270 4.8 11.3 0.00 0.00 0.00 36 1012.9
20260905231016 27 225 4.8 12.9 0.00 0.00 0.00 36 1013.0
20260905230137 27 248 1.6 8.0 0.00 0.00 0.00 36 1013.1
20260905225117 28 248 6.4 14.5 0.00 0.00 0.00 36 1013.3
20260905224119 28 248 3.2 12.9 0.00 0.00 0.00 37 1013.3
20260905223117 28 0.0 1.6 0.00 0.00 0.00 38 1013.3
20260905222138 28 225 6.4 12.9 0.00 0.00 0.00 37 1013.3
20260905221117 28 270 4.8 11.3 0.00 0.00 0.00 38 1013.4
20260905220117 28 270 6.4 14.5 0.00 0.00 0.00 37 1013.4
20260905215117 28 0.0 0.0 0.00 0.00 0.00 36 1013.6
20260905214117 28 0.0 0.0 0.00 0.00 0.00 37 1013.5
20260905213117 28 225 4.8 16.1 0.00 0.00 0.00 37 1013.6
20260905212117 28 0.0 0.0 0.00 0.00 0.00 38 1013.7
20260905211117 28 0.0 0.0 0.00 0.00 0.00 38 1013.7
20260905210118 28 0.0 0.0 0.00 0.00 0.00 38 1013.7
20260905205117 28 0.0 0.0 0.00 0.00 0.00 37 1013.8
20260905204119 28 0.0 0.0 0.00 0.00 0.00 38 1013.8
20260905203117 28 0.0 0.0 0.00 0.00 0.00 38 1013.8
20260905202117 28 0.0 0.0 0.00 0.00 0.00 38 1013.9
20260905201117 27 0.0 0.0 0.00 0.00 0.00 39 1014.1
20260905200117 27 0.0 0.0 0.00 0.00 0.00 40 1014.2
20260905195117 27 0.0 0.0 0.00 0.00 0.00 37 1014.2
20260905194119 26 0.0 0.0 0.00 0.00 0.00 37 1014.4
20260905193117 26 0.0 0.0 0.00 0.00 0.00 38 1014.4
20260905192117 25 0.0 0.0 0.00 0.00 0.00 37 1014.6
20260905191137 25 0.0 0.0 0.00 0.00 0.00 34 1014.7
20260905185116 24 0.0 0.0 0.00 0.00 0.00 36 1014.8
20260905184116 23 0.0 0.0 0.00 0.00 0.00 37 1014.9
20260905183116 23 0.0 0.0 0.00 0.00 0.00 37 1015.0
20260905182116 23 0.0 0.0 0.00 0.00 0.00 41 1015.2
20260905181116 22 0.0 0.0 0.00 0.00 0.00 40 1015.2
20260905180116 22 0.0 0.0 0.00 0.00 0.00 49 1015.2
20260905175116 21 0.0 0.0 0.00 0.00 0.00 53 1015.3
20260905174117 21 0.0 0.0 0.00 0.00 0.00 56 1015.3
20260905173116 20 0.0 0.0 0.00 0.00 0.00 57 1015.4
20260905172116 20 0.0 0.0 0.00 0.00 0.00 57 1015.5
20260905171116 19 0.0 0.0 0.00 0.00 0.00 60 1015.5
20260905170136 19 0.0 0.0 0.00 0.00 0.00 61 1015.5
20260905165116 19 0.0 0.0 0.00 0.00 0.00 60 1015.4
20260905164157 20 0.0 0.0 0.00 0.00 0.00 61 1015.3
20260905163116 19 0.0 0.0 0.00 0.00 0.00 62 1015.2
20260905162116 20 0.0 0.0 0.00 0.00 0.00 60 1015.4
20260905161116 19 0.0 0.0 0.00 0.00 0.00 63 1015.5
20260905160116 18 0.0 0.0 0.00 0.00 0.00 67 1015.5
20260905155116 18 0.0 0.0 0.00 0.00 0.00 67 1015.4
20260905154116 18 0.0 0.0 0.00 0.00 0.00 69 1015.4
20260905153116 17 0.0 0.0 0.00 0.00 0.00 73 1015.3
20260905152118 16 0.0 0.0 0.00 0.00 0.00 77 1015.2
20260905151136 15 0.0 0.0 0.00 0.00 0.00 77 1015.2
20260905150116 15 0.0 0.0 0.00 0.00 0.00 78 1015.3
20260905145116 15 0.0 0.0 0.00 0.00 0.00 79 1015.3
20260905144136 15 0.0 0.0 0.00 0.00 0.00 80 1015.2
20260905143116 15 0.0 0.0 0.00 0.00 0.00 80 1015.2
20260905142116 15 0.0 0.0 0.00 0.00 0.00 80 1015.1
20260905141116 15 0.0 0.0 0.00 0.00 0.00 80 1015.0
20260905140116 15 0.0 0.0 0.00 0.00 0.00 80 1014.9
20260905135116 15 0.0 0.0 0.00 0.00 0.00 80 1014.9
20260905134116 15 0.0 0.0 0.00 0.00 0.00 80 1014.9
20260905133117 15 0.0 0.0 0.00 0.00 0.00 80 1014.9
20260905132116 15 0.0 0.0 0.00 0.00 0.00 80 1014.8
20260905131138 15 0.0 0.0 0.00 0.00 0.00 80 1014.8
20260905125117 15 0.0 0.0 0.00 0.00 0.00 80 1014.8
20260905124217 15 0.0 0.0 0.00 0.03 0.00 79 1014.8
20260905123117 15 0.0 0.0 0.00 0.03 0.00 79 1014.8
20260905122137 15 0.0 0.0 0.00 0.03 0.00 79 1014.8
20260905121117 15 0.0 0.0 0.00 0.03 0.00 79 1014.8
20260905120144 15 0.0 0.0 0.00 0.03 0.00 79 1014.9
20260905115119 15 0.0 0.0 0.00 0.03 0.00 79 1014.9
20260905114117 15 0.0 0.0 0.00 0.03 0.00 79 1014.8
20260905113117 15 0.0 0.0 0.00 0.03 0.00 79 1014.9
20260905112117 15 0.0 0.0 0.00 0.03 0.00 78 1015.0
20260905111117 15 0.0 0.0 0.00 0.03 0.00 78 1015.0
20260905110136 15 0.0 0.0 0.00 0.03 0.00 78 1015.0
20260905105116 15 0.0 0.0 0.00 0.03 0.00 78 1015.0
20260905104116 15 0.0 0.0 0.00 0.03 0.00 78 1014.9
20260905103116 15 0.0 0.0 0.00 0.05 0.00 78 1015.0
20260905102116 15 0.0 0.0 0.00 0.05 0.00 78 1015.1
20260905101116 15 0.0 0.0 0.00 0.08 0.00 77 1015.2
20260905100116 15 0.0 0.0 0.00 0.10 0.00 77 1015.1
20260905095116 16 0.0 0.0 0.00 0.10 0.00 77 1015.1
20260905094116 16 0.0 0.0 0.00 0.10 0.00 76 1015.1
20260905093116 16 0.0 0.0 0.00 0.10 0.00 76 1015.2
20260905092115 16 0.0 0.0 0.00 0.10 0.00 75 1015.2
20260905091116 16 0.0 0.0 0.00 0.10 0.00 74 1015.2
20260905090116 16 0.0 0.0 0.00 0.13 0.00 73 1015.3
20260905085137 16 0.0 0.0 0.00 0.13 0.00 73 1015.3
20260905084116 16 0.0 0.0 0.00 0.13 0.00 72 1015.3
20260905083116 16 0.0 0.0 0.00 0.13 0.00 72 1015.4
20260905082136 16 0.0 0.0 0.00 0.13 0.00 72 1015.4
20260905081116 16 0.0 0.0 0.00 0.13 0.00 72 1015.4
20260905080116 16 0.0 0.0 0.00 0.13 0.00 72 1015.5
20260905075116 16 0.0 0.0 0.00 0.13 0.00 71 1015.5
20260905074115 16 0.0 0.0 0.00 0.13 0.00 71 1015.5
20260905073136 16 0.0 0.0 0.00 0.13 0.00 71 1015.4
20260905072116 16 0.0 0.0 0.00 0.13 0.00 72 1015.3
20260905071116 16 0.0 0.0 0.00 0.13 0.00 72 1015.3
20260905065116 16 0.0 0.0 0.00 0.13 0.13 71 1015.1
20260905064116 16 0.0 0.0 0.00 0.13 0.13 71 1015.1
20260905063116 16 0.0 0.0 0.00 0.13 0.13 71 1015.0
20260905062136 16 0.0 0.0 0.00 0.13 0.13 72 1015.0
20260905061116 16 0.0 0.0 0.00 0.13 0.13 71 1015.0
20260905060156 16 0.0 0.0 0.00 0.13 0.13 71 1015.1
20260905055116 16 0.0 0.0 0.00 0.13 0.13 70 1014.9
20260905054136 16 0.0 0.0 0.00 0.13 0.13 70 1014.8
20260905053116 16 0.0 0.0 0.00 0.13 0.13 69 1014.7
20260905052116 17 0.0 0.0 0.00 0.13 0.13 68 1014.7
20260905051116 17 0.0 0.0 0.00 0.13 0.13 68 1014.8
20260905050135 17 0.0 0.0 0.00 0.13 0.13 68 1014.7
20260905045117 16 0.0 0.0 0.00 0.13 0.13 69 1014.8
20260905044117 16 0.0 0.0 0.00 0.13 0.13 67 1014.8
20260905043137 16 0.0 0.0 0.00 0.13 0.13 65 1014.6
20260905042117 17 0.0 0.0 0.00 0.13 0.13 65 1014.5
20260905041117 17 0.0 0.0 0.00 0.13 0.13 62 1014.4
20260905040118 17 0.0 0.0 0.00 0.13 0.13 61 1014.5
20260905035117 18 0.0 0.0 0.00 0.13 0.13 60 1014.3
20260905034117 18 0.0 0.0 0.00 0.13 0.13 59 1014.2
20260905033117 18 0.0 0.0 0.00 0.13 0.13 58 1014.0
20260905032120 18 0.0 0.0 0.00 0.13 0.13 57 1013.9
20260905031117 19 0.0 0.0 0.00 0.13 0.13 55 1013.8
20260905030117 20 0.0 0.0 0.00 0.13 0.13 55 1013.7
20260905025117 20 0.0 0.0 0.00 0.13 0.13 53 1013.7
20260905024140 20 0.0 0.0 0.00 0.13 0.13 52 1013.5
20260905023158 20 0.0 0.0 0.00 0.13 0.13 52 1013.4
20260905022118 21 0.0 0.0 0.00 0.13 0.13 50 1013.3
20260905021138 21 0.0 0.0 0.00 0.13 0.13 50 1013.2
20260905020138 21 0.0 0.0 0.00 0.13 0.13 50 1013.1
20260905015117 22 0.0 0.0 0.00 0.13 0.13 50 1013.2
20260905014118 22 0.0 0.0 0.00 0.13 0.13 49 1013.3
20260905013117 22 0.0 0.0 0.00 0.13 0.13 48 1013.3
20260905012117 23 0.0 0.0 0.00 0.13 0.13 48 1013.2
20260905011117 23 248 4.8 12.9 0.00 0.13 0.13 49 1013.3